Weather Roundup
Issued by NWS Chicago, IL

Home | Current Version | Previous Version | Graphics & Text | Print | Product List | Glossary On
Versions: 1 2 3 4 5 6 7 8 9 10 11 12 13 14 15 16 17 18 19 20 21 22 23 24 25 26 27 28 29 30 31 32 33 34 35 36 37 38 39 40 41 42 43 44 45 46 47 48 49 50
101
NZUS59 KLOT 290008
HRRLOT

CHICAGO AREA WEATHER ROUNDUP
NATIONAL WEATHER SERVICE CHICAGO/ROMEOVILLE IL
700 PM CDT SAT MAY 28 2016

NOTE: "FAIR" INDICATES FEW OR NO CLOUDS BELOW 12,000 FEET WITH NO
SIGNIFICANT WEATHER AND/OR OBSTRUCTIONS TO VISIBILITY.

* THESE STATIONS ARE NOT UNDER NWS QUALITY CONTROL. THEY ALSO MAY NOT
  REPORT WEATHER SUCH AS PRECIPITATION OR FOG.

ILZ005-006-012>014-019>023-290100-
NORTHEAST ILLINOIS

CITY           SKY/WX    TMP DP  RH WIND       PRES   REMARKS
OHARE          PTSUNNY   79  64  60 S22G30    29.88R HX  81
6HR MIN TEMP:  74; 6HR MAX TEMP:  81;

MIDWAY         PTSUNNY   82  62  50 S16G25    29.89R HX  83
6HR MIN TEMP:  76; 6HR MAX TEMP:  83;

AURORA         PTSUNNY   82  67  60 S18G30    29.87R HX  84
6HR MIN TEMP:  78; 6HR MAX TEMP:  85;

LANSING*       SUNNY     79  63  58 S16G23    29.92R HX  80
JOLIET*        MOSUNNY   82  66  58 S18G24    29.90R HX  83
WAUKEGAN       SUNNY     79  65  62 S9        29.87R HX  81
6HR MIN TEMP:  75; 6HR MAX TEMP:  81; 6HR PCP: TRACE;

DUPAGE AIRPORT MOSUNNY   79  64  60 S21G26    29.87R HX  81
6HR MIN TEMP:  75; 6HR MAX TEMP:  83;

WHEELING       MOSUNNY   80  64  58 S18G30    29.89R HX  82
6HR MIN TEMP:  75; 6HR MAX TEMP:  82;

KANKAKEE*      SUNNY     80  63  57 S15G23    29.93R HX  81
MORRIS*        MOSUNNY   81  66  60 S20G25    29.88R HX  83
LEWIS AIRPORT* MOSUNNY   81  61  50 S22G28    29.89R HX  82
$$

WIZ051-052-058>065-066-070>072-290100-
SOUTHEAST WISCONSIN

CITY           SKY/WX    TMP DP  RH WIND       PRES   REMARKS
MILWAUKEE      MOSUNNY   76  63  64 SE10      29.86R
6HR MIN TEMP:  75; 6HR MAX TEMP:  82;

KENOSHA*       SUNNY     80  64  58 S10       29.87R HX  82
RACINE*        SUNNY     73  60  63 S10       29.89R
BURLINGTON     MOSUNNY   81  61  51 S8        29.86R HX  82
WAUKESHA       MOSUNNY   79  61  53 S9G21     29.86S HX  80
WEST BEND      SUNNY     79  61  53 S12       29.85S HX  80
$$

INZ001>003-010>013-019-020-290100-
NORTHWEST INDIANA

CITY           SKY/WX    TMP DP  RH WIND       PRES   REMARKS
GARY*          MOSUNNY   82  70  65 S14       29.92R HX  86
MICHIGAN CITY* NOT AVBL
RENSSELAER*    NOT AVBL
VALPARAISO     SUNNY     81  60  48 S15G25    29.94S HX  82
$$

LMZ740>746-290100-
SOUTHERN LAKE MICHIGAN

STATION/POSITION TIME  SKY/WX   TEMP WIND        PRES    VSBY
                                AIR  DIR/SP/G
                 (UTC)          (F)  (DEG/KT/KT) (MB)    (MI)
HARRISON CRIB    2300            76  190/ 23/ 26   N/A
BURNHAM HARBOR   0000            81  180/ 17/ 21   N/A
CALUMET HARBOR   2300            82  180/ 17/ 22   N/A
BURNS HARBOR     2300            80  190/ 17/ 24 1013.2S
MICHIGAN CITY    2300            81  180/ 18/ 21   N/A
$$

ABBREVIATIONS USED IN REMARKS
   TC - TEMPERATURE IN CELSIUS
  WCI - WIND CHILL INDEX
   HX - HEAT INDEX
  VSB - VISIBILITY
$$




USA.gov is the U.S. government's official web portal to all federal, state and local government web resources and services.